| time (UTC) | temp C | wind direction | speed KPH | gust KPH | rain 1hr cm | rain 24hr cm | rain mn cm | humidity % | barometer mb |
| 20260906122618 | 13 | 334 | 6.4 | 8.0 | 0.00 | 0.00 | 0.00 | 1 | 1016.6 |
| 20260906121635 | 13 | 331 | 9.7 | 12.9 | 0.00 | 0.00 | 0.00 | 1 | 1016.9 |
| 20260906120632 | 13 | 342 | 9.7 | 12.9 | 0.00 | 0.00 | 0.00 | 1 | 1016.9 |
| 20260906115629 | 13 | 347 | 11.3 | 12.9 | 0.00 | 0.00 | 0.00 | 1 | 1016.8 |
| 20260906114625 | 14 | 349 | 11.3 | 12.9 | 0.00 | 0.00 | 0.00 | 1 | 1017.0 |
| 20260906113622 | 13 | 1 | 4.8 | 6.4 | 0.00 | 0.00 | 0.00 | 1 | 1016.8 |
| 20260906112619 | 13 | 357 | 1.6 | 3.2 | 0.00 | 0.00 | 0.00 | 1 | 1017.0 |
| 20260906111640 | 13 | 0.0 | 0.0 | 0.00 | 0.00 | 0.00 | 1 | 1016.9 | |
| 20260906110635 | 13 | 14 | 1.6 | 3.2 | 0.00 | 0.00 | 0.00 | 1 | 1017.0 |
| 20260906105633 | 13 | 325 | 3.2 | 3.2 | 0.00 | 0.00 | 0.00 | 1 | 1017.0 |
| 20260906104629 | 13 | 0.0 | 1.6 | 0.00 | 0.00 | 0.00 | 1 | 1017.0 | |
| 20260906103626 | 13 | 342 | 1.6 | 3.2 | 0.00 | 0.00 | 0.00 | 1 | 1017.1 |
| 20260906102623 | 13 | 316 | 6.4 | 6.4 | 0.00 | 0.00 | 0.00 | 1 | 1017.0 |
| 20260906101619 | 13 | 355 | 8.0 | 11.3 | 0.00 | 0.00 | 0.00 | 1 | 1016.9 |
| 20260906100616 | 13 | 352 | 14.5 | 19.3 | 0.00 | 0.00 | 0.00 | 1 | 1016.9 |
| 20260906095633 | 13 | 356 | 11.3 | 14.5 | 0.00 | 0.00 | 0.00 | 1 | 1017.0 |
| 20260906094630 | 13 | 355 | 9.7 | 14.5 | 0.00 | 0.00 | 0.00 | 1 | 1016.9 |
| 20260906093626 | 12 | 338 | 8.0 | 9.7 | 0.00 | 0.00 | 0.00 | 1 | 1017.0 |
| 20260906092622 | 12 | 318 | 8.0 | 9.7 | 0.00 | 0.00 | 0.00 | 1 | 1017.0 |
| 20260906091619 | 12 | 312 | 4.8 | 4.8 | 0.00 | 0.00 | 0.00 | 1 | 1016.9 |
| 20260906090616 | 12 | 257 | 1.6 | 3.2 | 0.00 | 0.00 | 0.00 | 1 | 1017.0 |
| 20260906085633 | 12 | 280 | 1.6 | 3.2 | 0.00 | 0.00 | 0.00 | 1 | 1017.2 |
| 20260906084710 | 12 | 308 | 4.8 | 6.4 | 0.00 | 0.00 | 0.00 | 1 | 1017.2 |
| 20260906083627 | 13 | 315 | 8.0 | 11.3 | 0.00 | 0.00 | 0.00 | 1 | 1017.3 |
| 20260906082623 | 13 | 343 | 8.0 | 16.1 | 0.00 | 0.00 | 0.00 | 1 | 1017.4 |
| 20260906081640 | 13 | 359 | 11.3 | 19.3 | 0.00 | 0.00 | 0.00 | 1 | 1017.4 |
| 20260906080616 | 13 | 326 | 11.3 | 17.7 | 0.00 | 0.00 | 0.00 | 1 | 1017.5 |
| 20260906075633 | 13 | 335 | 11.3 | 12.9 | 0.00 | 0.00 | 0.00 | 1 | 1017.4 |
| 20260906074629 | 14 | 336 | 8.0 | 12.9 | 0.00 | 0.00 | 0.00 | 1 | 1017.5 |
| 20260906073626 | 14 | 331 | 12.9 | 16.1 | 0.00 | 0.00 | 0.00 | 1 | 1017.3 |
| 20260906072623 | 14 | 328 | 8.0 | 9.7 | 0.00 | 0.00 | 0.00 | 1 | 1017.6 |
| 20260906071619 | 15 | 338 | 6.4 | 9.7 | 0.00 | 0.00 | 0.00 | 1 | 1017.4 |
| 20260906070635 | 15 | 341 | 9.7 | 12.9 | 0.00 | 0.00 | 0.00 | 1 | 1017.5 |
| 20260906065632 | 15 | 335 | 4.8 | 8.0 | 0.00 | 0.00 | 0.00 | 1 | 1017.7 |
| 20260906064629 | 14 | 345 | 4.8 | 6.4 | 0.00 | 0.00 | 0.00 | 1 | 1017.6 |
| 20260906063625 | 13 | 326 | 1.6 | 3.2 | 0.00 | 0.00 | 0.00 | 1 | 1017.7 |
| 20260906062622 | 14 | 253 | 1.6 | 3.2 | 0.00 | 0.00 | 0.00 | 1 | 1017.9 |
| 20260906061618 | 14 | 295 | 4.8 | 4.8 | 0.00 | 0.00 | 0.00 | 1 | 1017.8 |
| 20260906060635 | 13 | 330 | 4.8 | 8.0 | 0.00 | 0.00 | 0.00 | 1 | 1017.7 |
| 20260906055631 | 13 | 353 | 3.2 | 3.2 | 0.00 | 0.00 | 0.00 | 1 | 1017.8 |
| 20260906054627 | 14 | 299 | 3.2 | 3.2 | 0.00 | 0.00 | 0.00 | 1 | 1017.7 |
| 20260906053624 | 15 | 315 | 4.8 | 4.8 | 0.00 | 0.00 | 0.00 | 1 | 1017.7 |
| 20260906052620 | 15 | 326 | 6.4 | 9.7 | 0.00 | 0.00 | 0.00 | 1 | 1017.7 |
| 20260906051619 | 15 | 327 | 6.4 | 8.0 | 0.00 | 0.00 | 0.00 | 1 | 1017.6 |
| 20260906050632 | 15 | 338 | 6.4 | 8.0 | 0.00 | 0.00 | 0.00 | 1 | 1017.5 |
| 20260906045628 | 16 | 323 | 4.8 | 6.4 | 0.00 | 0.00 | 0.00 | 1 | 1017.9 |
| 20260906044624 | 16 | 344 | 4.8 | 6.4 | 0.00 | 0.00 | 0.00 | 1 | 1017.8 |
| 20260906043640 | 16 | 318 | 4.8 | 4.8 | 0.00 | 0.00 | 0.00 | 1 | 1017.9 |
| 20260906042616 | 16 | 344 | 6.4 | 8.0 | 0.00 | 0.00 | 0.00 | 1 | 1017.9 |
| 20260906041632 | 16 | 343 | 6.4 | 8.0 | 0.00 | 0.00 | 0.00 | 1 | 1017.7 |
| 20260906040628 | 16 | 343 | 6.4 | 8.0 | 0.00 | 0.00 | 0.00 | 1 | 1017.8 |
| 20260906035625 | 17 | 322 | 4.8 | 6.4 | 0.00 | 0.00 | 0.00 | 1 | 1017.7 |
| 20260906034621 | 17 | 341 | 4.8 | 4.8 | 0.00 | 0.00 | 0.00 | 1 | 1017.8 |
| 20260906033618 | 17 | 344 | 4.8 | 6.4 | 0.00 | 0.00 | 0.00 | 1 | 1017.6 |
| 20260906032633 | 18 | 332 | 4.8 | 6.4 | 0.00 | 0.00 | 0.00 | 1 | 1017.6 |
| 20260906031629 | 18 | 318 | 8.0 | 9.7 | 0.00 | 0.00 | 0.00 | 1 | 1017.5 |
| 20260906030625 | 18 | 329 | 8.0 | 9.7 | 0.00 | 0.00 | 0.00 | 1 | 1017.4 |
| 20260906025621 | 18 | 318 | 9.7 | 14.5 | 0.00 | 0.00 | 0.00 | 1 | 1017.3 |
| 20260906024618 | 18 | 314 | 6.4 | 9.7 | 0.00 | 0.00 | 0.00 | 1 | 1017.3 |
| 20260906023634 | 19 | 315 | 8.0 | 9.7 | 0.00 | 0.00 | 0.00 | 1 | 1017.3 |
| 20260906022630 | 20 | 327 | 4.8 | 8.0 | 0.00 | 0.00 | 0.00 | 1 | 1017.3 |
| 20260906021626 | 20 | 336 | 4.8 | 9.7 | 0.00 | 0.00 | 0.00 | 1 | 1017.2 |
| 20260906020623 | 20 | 333 | 8.0 | 9.7 | 0.00 | 0.00 | 0.00 | 1 | 1017.3 |
| 20260906015619 | 21 | 319 | 4.8 | 8.0 | 0.00 | 0.00 | 0.00 | 1 | 1017.1 |
| 20260906014635 | 21 | 318 | 4.8 | 6.4 | 0.00 | 0.00 | 0.00 | 1 | 1017.2 |
| 20260906013651 | 21 | 13 | 1.6 | 3.2 | 0.00 | 0.00 | 0.00 | 1 | 1017.4 |
| 20260906012627 | 22 | 351 | 3.2 | 4.8 | 0.00 | 0.00 | 0.00 | 1 | 1017.4 |
| 20260906011623 | 22 | 1 | 4.8 | 6.4 | 0.00 | 0.00 | 0.00 | 1 | 1017.2 |
| 20260906010619 | 22 | 18 | 4.8 | 4.8 | 0.00 | 0.00 | 0.00 | 1 | 1017.2 |
| 20260906005635 | 23 | 343 | 3.2 | 4.8 | 0.00 | 0.00 | 0.00 | 1 | 1017.3 |
| 20260906004651 | 23 | 0.0 | 0.0 | 0.00 | 0.00 | 0.00 | 1 | 1017.3 | |
| 20260906003628 | 22 | 32 | 1.6 | 4.8 | 0.00 | 0.00 | 0.00 | 1 | 1017.2 |
| 20260906002624 | 22 | 52 | 3.2 | 3.2 | 0.00 | 0.00 | 0.00 | 1 | 1017.4 |
| 20260906001620 | 22 | 32 | 4.8 | 6.4 | 0.00 | 0.00 | 0.00 | 1 | 1017.4 |
| 20260906000616 | 22 | 23 | 6.4 | 8.0 | 0.00 | 0.00 | 0.00 | 1 | 1017.5 |
| 20260905235633 | 22 | 322 | 4.8 | 6.4 | 0.00 | 0.00 | 0.00 | 1 | 1017.4 |
| 20260905234629 | 22 | 10 | 6.4 | 8.0 | 0.00 | 0.00 | 0.00 | 1 | 1017.5 |
| 20260905233625 | 22 | 321 | 6.4 | 9.7 | 0.00 | 0.00 | 0.00 | 1 | 1017.5 |
| 20260905232701 | 23 | 10 | 6.4 | 9.7 | 0.00 | 0.00 | 0.00 | 1 | 1017.5 |
| 20260905231617 | 23 | 34 | 4.8 | 6.4 | 0.00 | 0.00 | 0.00 | 1 | 1017.4 |
| 20260905230634 | 22 | 32 | 3.2 | 4.8 | 0.00 | 0.00 | 0.00 | 1 | 1017.7 |
| 20260905225630 | 22 | 216 | 3.2 | 4.8 | 0.00 | 0.00 | 0.00 | 1 | 1017.6 |
| 20260905224628 | 22 | 38 | 3.2 | 6.4 | 0.00 | 0.00 | 0.00 | 1 | 1017.7 |
| 20260905223622 | 22 | 103 | 3.2 | 4.8 | 0.00 | 0.00 | 0.00 | 1 | 1017.7 |
| 20260905222619 | 21 | 60 | 6.4 | 11.3 | 0.00 | 0.00 | 0.00 | 1 | 1017.7 |
| 20260905221635 | 22 | 302 | 4.8 | 8.0 | 0.00 | 0.00 | 0.00 | 1 | 1018.0 |
| 20260905220631 | 21 | 313 | 4.8 | 9.7 | 0.00 | 0.00 | 0.00 | 1 | 1018.0 |
| 20260905215627 | 21 | 110 | 3.2 | 3.2 | 0.00 | 0.00 | 0.00 | 1 | 1018.0 |
| 20260905214623 | 22 | 316 | 9.7 | 16.1 | 0.00 | 0.00 | 0.00 | 1 | 1018.1 |
| 20260905213639 | 21 | 312 | 8.0 | 12.9 | 0.00 | 0.00 | 0.00 | 1 | 1018.3 |
| 20260905212636 | 21 | 32 | 4.8 | 8.0 | 0.00 | 0.00 | 0.00 | 1 | 1018.3 |
| 20260905211632 | 21 | 40 | 6.4 | 9.7 | 0.00 | 0.00 | 0.00 | 1 | 1018.5 |
| 20260905210628 | 21 | 238 | 4.8 | 8.0 | 0.00 | 0.00 | 0.00 | 1 | 1018.7 |
| 20260905205624 | 21 | 311 | 4.8 | 6.4 | 0.00 | 0.00 | 0.00 | 1 | 1018.6 |
| 20260905204700 | 21 | 2 | 9.7 | 14.5 | 0.00 | 0.00 | 0.00 | 1 | 1018.5 |
| 20260905203616 | 20 | 338 | 8.0 | 14.5 | 0.00 | 0.00 | 0.00 | 1 | 1018.5 |
| 20260905202713 | 20 | 27 | 6.4 | 9.7 | 0.00 | 0.00 | 0.00 | 1 | 1018.6 |
| 20260905201628 | 21 | 341 | 9.7 | 17.7 | 0.00 | 0.00 | 0.00 | 1 | 1018.6 |
| 20260905200649 | 20 | 320 | 9.7 | 17.7 | 0.00 | 0.00 | 0.00 | 1 | 1018.7 |
| 20260905195641 | 20 | 330 | 8.0 | 12.9 | 0.00 | 0.00 | 0.00 | 1 | 1018.9 |
| 20260905194617 | 20 | 336 | 14.5 | 20.9 | 0.00 | 0.00 | 0.00 | 1 | 1018.9 |
| 20260905193653 | 20 | 317 | 11.3 | 12.9 | 0.00 | 0.00 | 0.00 | 1 | 1018.9 |
| 20260905192629 | 20 | 357 | 17.7 | 24.1 | 0.00 | 0.00 | 0.00 | 1 | 1018.7 |
| 20260905191625 | 20 | 338 | 14.5 | 17.7 | 0.00 | 0.00 | 0.00 | 1 | 1019.0 |
| 20260905190621 | 19 | 355 | 12.9 | 19.3 | 0.00 | 0.00 | 0.00 | 1 | 1019.0 |
| 20260905185617 | 19 | 289 | 8.0 | 11.3 | 0.00 | 0.00 | 0.00 | 1 | 1019.2 |
| 20260905184654 | 19 | 321 | 9.7 | 16.1 | 0.00 | 0.00 | 0.00 | 1 | 1019.0 |
| 20260905183630 | 18 | 282 | 6.4 | 8.0 | 0.00 | 0.00 | 0.00 | 1 | 1019.3 |
| 20260905182627 | 18 | 358 | 12.9 | 20.9 | 0.00 | 0.00 | 0.00 | 1 | 1019.3 |
| 20260905181622 | 17 | 327 | 3.2 | 6.4 | 0.00 | 0.00 | 0.00 | 1 | 1019.4 |
| 20260905180639 | 18 | 358 | 8.0 | 14.5 | 0.00 | 0.00 | 0.00 | 1 | 1019.6 |
| 20260905175634 | 17 | 352 | 9.7 | 12.9 | 0.00 | 0.00 | 0.00 | 1 | 1019.6 |
| 20260905174710 | 17 | 22 | 4.8 | 9.7 | 0.00 | 0.00 | 0.00 | 1 | 1019.8 |
| 20260905173626 | 17 | 6 | 9.7 | 14.5 | 0.00 | 0.00 | 0.00 | 1 | 1019.8 |
| 20260905172622 | 17 | 11 | 9.7 | 12.9 | 0.00 | 0.00 | 0.00 | 1 | 1019.7 |
| 20260905171618 | 17 | 8 | 9.7 | 14.5 | 0.00 | 0.00 | 0.00 | 1 | 1019.7 |
| 20260905170635 | 16 | 357 | 12.9 | 16.1 | 0.00 | 0.00 | 0.00 | 1 | 1019.7 |
| 20260905165631 | 16 | 3 | 8.0 | 9.7 | 0.00 | 0.00 | 0.00 | 1 | 1019.7 |
| 20260905164627 | 17 | 18 | 8.0 | 9.7 | 0.00 | 0.00 | 0.00 | 1 | 1019.7 |
| 20260905163623 | 16 | 360 | 11.3 | 14.5 | 0.00 | 0.00 | 0.00 | 1 | 1019.3 |
| 20260905162620 | 16 | 360 | 12.9 | 16.1 | 0.00 | 0.00 | 0.00 | 1 | 1019.2 |
| 20260905161636 | 16 | 352 | 11.3 | 16.1 | 0.00 | 0.00 | 0.00 | 1 | 1019.1 |
| 20260905160632 | 15 | 327 | 12.9 | 16.1 | 0.00 | 0.00 | 0.00 | 1 | 1019.0 |
| 20260905155628 | 15 | 314 | 11.3 | 14.5 | 0.00 | 0.00 | 0.00 | 1 | 1019.2 |
| 20260905154624 | 15 | 335 | 11.3 | 14.5 | 0.00 | 0.00 | 0.00 | 1 | 1019.2 |
| 20260905153620 | 15 | 326 | 9.7 | 11.3 | 0.00 | 0.00 | 0.00 | 1 | 1019.2 |
| 20260905152617 | 15 | 343 | 8.0 | 9.7 | 0.00 | 0.00 | 0.00 | 1 | 1019.4 |
| 20260905151653 | 15 | 319 | 6.4 | 8.0 | 0.00 | 0.00 | 0.00 | 1 | 1019.5 |
| 20260905150649 | 14 | 263 | 3.2 | 3.2 | 0.00 | 0.00 | 0.00 | 1 | 1019.5 |
| 20260905145625 | 14 | 347 | 6.4 | 8.0 | 0.00 | 0.00 | 0.00 | 1 | 1019.5 |
| 20260905144621 | 13 | 317 | 3.2 | 6.4 | 0.00 | 0.00 | 0.00 | 1 | 1019.4 |
| 20260905143618 | 13 | 348 | 3.2 | 4.8 | 0.00 | 0.00 | 0.00 | 1 | 1019.4 |
| 20260905142634 | 13 | 261 | 3.2 | 6.4 | 0.00 | 0.00 | 0.00 | 1 | 1019.5 |
| 20260905141630 | 13 | 328 | 3.2 | 4.8 | 0.00 | 0.00 | 0.00 | 1 | 1019.2 |
| 20260905140626 | 12 | 340 | 1.6 | 4.8 | 0.00 | 0.00 | 0.00 | 1 | 1019.2 |
| 20260905135622 | 12 | 0.0 | 3.2 | 0.00 | 0.00 | 0.00 | 1 | 1019.1 | |
| 20260905134618 | 12 | 345 | 1.6 | 4.8 | 0.00 | 0.00 | 0.00 | 1 | 1019.0 |
| 20260905133735 | 13 | 93 | 0.0 | 3.2 | 0.00 | 0.00 | 0.00 | 1 | 1018.9 |
| 20260905132651 | 13 | 73 | 3.2 | 4.8 | 0.00 | 0.00 | 0.00 | 1 | 1018.8 |
| 20260905131627 | 13 | 0.0 | 3.2 | 0.00 | 0.00 | 0.00 | 1 | 1018.7 | |
| 20260905130643 | 13 | 0.0 | 3.2 | 0.00 | 0.00 | 0.00 | 1 | 1018.6 | |
| 20260905125619 | 13 | 205 | 4.8 | 8.0 | 0.00 | 0.00 | 0.00 | 1 | 1018.6 |
| 20260905124618 | 12 | 222 | 3.2 | 3.2 | 0.00 | 0.00 | 0.00 | 1 | 1018.4 |
| 20260905123633 | 12 | 266 | 3.2 | 4.8 | 0.00 | 0.00 | 0.00 | 1 | 1018.1 |